SCP
0 0 0 0 0 0 0 0 0 0 0 0 0 0 1 1 1 1 1 1 1 2 1 1 1 2 4 4 4 4 3 2 2 2 1 2 2 2 2 1 2 2 1 1 1 1 1 1 2
0 0 0 0 0 0 0 0 0 0 0 0 0 1 1 1 1 1 1 1 2 2 1 1 1 2 4 4 4 4 3 2 2 2 2 2 2 2 2 2 1 2 1 1 1 1 1 2 2
0 0 0 0 0 0 0 0 0 0 0 0 0 1 1 1 1 1 1 2 2 2 1 1 2 2 3 4 4 4 3 2 2 2 2 2 2 2 2 2 1 2 2 1 1 1 2 2 2
0 0 0 0 0 0 0 0 0 0 0 0 0 1 1 1 1 1 2 2 3 2 1 1 2 2 3 4 4 4 3 3 2 2 2 2 2 2 2 2 2 2 2 2 1 1 2 2 2
0 0 0 0 0 0 0 0 0 0 0 0 0 1 1 1 1 1 2 2 2 2 2 2 2 2 3 4 4 4 4 3 2 2 2 2 2 2 2 2 2 2 2 2 2 1 2 2 2
0 0 0 0 0 0 0 0 0 0 0 0 0 1 1 1 1 1 2 2 2 2 2 2 2 2 3 3 4 4 4 3 3 3 2 2 2 2 2 2 2 2 2 2 2 1 1 2 2
0 0 0 0 0 0 0 0 0 0 0 0 0 1 1 1 1 2 2 2 2 2 2 2 2 2 2 3 3 4 4 4 3 3 3 3 2 2 3 3 2 2 2 2 2 1 1 1 1
0 0 0 0 0 0 0 0 0 0 0 0 1 1 1 1 1 2 2 2 2 2 2 2 2 2 3 3 3 3 3 3 3 3 2 2 2 2 3 3 3 2 2 2 2 1 1 1 1
0 0 0 0 0 0 0 0 0 0 1 1 1 1 1 1 1 1 2 2 2 3 3 2 2 2 3 3 3 3 3 3 3 2 2 2 2 3 3 3 3 3 2 2 2 1 1 1 1
0 0 0 0 0 0 0 0 0 0 1 1 1 1 2 2 1 1 1 2 2 2 2 3 3 3 3 3 3 3 3 3 3 2 2 2 2 3 3 3 3 3 2 2 2 1 1 1 1
0 0 0 0 0 0 0 0 0 0 0 1 1 1 2 2 1 1 1 1 1 2 3 3 3 3 3 3 3 3 3 3 3 3 2 2 2 3 4 4 3 3 2 2 2 2 1 1 1
0 0 0 0 0 0 0 0 0 0 0 1 1 2 2 1 1 1 1 1 1 2 3 3 3 4 4 4 3 3 3 3 3 3 2 2 2 3 4 4 4 3 3 2 2 2 1 1 0
0 0 0 0 0 0 0 0 0 0 0 1 2 2 2 2 1 1 1 1 1 1 2 2 3 3 3 3 3 3 2 2 2 2 2 2 2 2 3 4 4 3 3 2 2 1 1 1 0
0 0 0 0 0 0 0 0 0 0 1 2 2 2 2 2 2 1 1 1 1 1 2 2 2 2 3 3 2 2 2 2 2 2 2 2 2 2 3 4 4 3 2 2 1 1 1 0 0
0 0 0 0 0 0 0 0 0 0 1 2 2 2 2 2 2 2 1 1 1 1 1 2 2 2 2 2 2 2 2 2 1 2 2 2 2 2 2 3 3 2 1 1 1 1 0 0 0
0 0 0 0 0 0 0 0 0 0 1 2 2 2 2 2 2 2 1 1 1 1 1 2 2 2 2 2 2 2 2 2 2 1 1 2 1 2 2 2 2 1 1 0 0 0 0 0 0
0 0 0 0 0 0 0 0 0 0 1 2 2 2 2 2 2 2 2 1 1 1 1 1 2 2 3 3 2 2 2 2 2 1 1 1 1 1 2 2 1 0 0 0 0 0 0 0 0
0 0 0 0 0 0 0 0 0 0 0 1 2 2 2 2 2 2 2 2 1 1 1 1 1 2 3 3 3 2 2 2 2 1 1 1 1 1 1 1 0 0 0 0 0 0 0 0 0
0 0 0 0 0 0 0 0 0 0 0 1 1 2 2 2 2 2 2 2 1 1 0 1 1 2 2 3 3 3 2 2 2 2 1 1 1 1 1 1 0 0 0 0 0 0 0 0 0
0 0 0 0 0 0 0 0 0 0 0 0 1 2 2 2 2 2 2 2 1 1 0 1 1 1 2 2 3 3 3 2 2 2 1 1 1 0 1 0 0 0 0 0 0 0 0 0 0
0 0 0 0 0 0 0 0 0 0 0 0 1 1 2 2 2 1 1 1 1 1 0 0 0 1 1 2 2 3 2 2 2 2 2 1 1 0 0 0 0 0 0 0 0 0 0 0 0
0 0 0 0 0 0 0 0 0 0 0 0 0 1 1 2 2 1 1 1 1 1 0 0 0 0 1 1 2 2 3 3 3 3 2 2 1 1 0 0 0 0 0 0 0 0 0 0 0
0 0 0 0 0 0 0 0 0 0 0 0 0 1 1 2 2 1 1 1 1 1 0 0 0 0 0 1 2 2 2 3 3 3 3 2 2 1 1 0 0 0 0 0 0 0 0 0 0
0 0 0 0 0 0 0 0 0 0 0 0 0 0 1 1 2 2 1 1 1 0 0 0 0 0 0 0 1 1 2 2 3 3 3 3 2 2 1 1 0 0 0 0 0 0 0 0 0
0 0 0 0 0 0 0 0 0 0 0 0 0 0 1 2 2 2 1 1 0 0 0 0 0 0 0 0 0 0 1 1 2 3 3 3 3 3 2 1 1 0 0 0 0 0 0 0 0
0 0 0 0 0 0 0 0 0 0 0 0 0 0 1 2 2 2 1 1 1 0 0 0 0 0 0 0 0 0 1 1 1 2 2 3 3 3 2 2 1 1 0 0 0 0 0 0 0
0 0 0 0 0 0 0 0 0 0 0 0 0 0 1 1 2 2 1 1 1 0 0 0 0 0 0 0 0 1 1 1 1 1 1 1 2 2 2 2 2 1 1 0 0 0 0 0 0
0 0 0 0 0 0 0 0 0 0 0 0 0 0 1 1 2 2 2 1 1 0 0 0 0 0 0 0 0 1 1 1 0 0 0 0 1 1 1 2 2 2 1 1 0 0 0 0 0
0 0 0 0 0 0 0 0 0 0 0 0 0 0 0 1 2 2 2 1 1 0 0 0 0 0 0 0 0 1 1 0 0 0 0 0 0 0 1 1 2 2 2 1 1 0 0 0 0
0 0 0 0 0 0 0 0 0 0 0 0 0 0 0 1 2 3 2 1 1 0 0 0 0 0 0 0 0 0 0 0 0 0 0 0 0 0 0 1 2 2 2 2 1 0 0 0 0
Wind_Speed
8 5 2 4 6 5 1 3 2 1 1 0 2 6 7 4 3 4 2 3 6 5 4 5 6 7 8 9 9 9 9 9 9 9 9 10 10 10 10 9 10 10 10 10 10 11 10 10 10
4 3 5 5 5 2 3 3 2 2 2 2 3 5 6 4 3 5 2 4 6 6 4 5 7 7 8 9 9 9 9 9 8 8 9 9 9 9 9 9 9 9 9 9 9 10 10 10 9
4 2 4 4 4 5 4 3 3 2 1 1 3 4 4 3 3 3 3 6 6 5 4 5 7 7 8 8 8 8 9 8 8 8 8 8 8 8 8 8 8 8 8 8 8 8 9 9 9
3 4 5 4 2 4 4 3 2 1 2 3 4 4 3 2 2 3 5 8 7 5 4 4 7 7 8 7 7 7 7 8 8 7 7 7 7 7 7 7 8 8 7 7 7 7 7 8 8
4 4 4 1 3 3 3 3 2 1 1 2 4 4 2 3 3 6 7 8 8 5 4 4 7 7 7 7 7 7 7 7 7 7 7 7 7 7 7 7 7 7 7 7 7 7 6 6 7
4 4 4 3 3 3 2 2 1 1 1 1 4 4 1 1 4 5 7 7 6 6 4 4 7 7 6 6 6 6 6 6 6 6 6 6 6 7 7 6 6 6 6 6 7 6 6 6 7
4 3 3 4 2 2 3 1 2 2 1 1 3 4 1 0 2 5 6 6 5 5 5 3 3 4 6 6 6 6 6 5 5 5 5 6 6 6 7 6 6 6 6 6 7 6 6 6 6
4 4 1 2 3 3 2 0 1 2 2 0 3 6 4 4 3 6 6 6 5 4 4 3 3 3 3 3 5 5 5 5 5 5 5 5 5 6 6 5 5 6 6 7 7 6 5 5 5
4 4 3 4 3 3 1 1 1 1 3 2 2 3 4 6 6 6 5 4 4 4 3 3 2 2 2 2 3 4 4 4 4 4 5 4 2 2 3 4 5 6 6 6 6 6 5 5 4
4 3 6 3 3 2 0 0 1 1 2 1 2 3 5 6 6 6 5 4 4 3 2 2 2 2 2 2 2 2 2 2 2 2 2 2 2 2 3 4 5 6 6 5 5 5 5 4 2
3 5 4 2 1 1 1 1 0 3 2 4 5 5 5 5 5 6 5 5 4 4 3 2 2 2 2 2 2 1 1 1 2 2 2 2 2 2 2 2 2 3 4 3 3 3 2 2 1
2 3 3 2 0 0 1 1 0 3 5 4 6 8 7 6 6 6 6 4 4 3 3 3 3 3 2 2 1 1 1 1 1 1 1 2 1 1 1 1 1 1 1 1 1 1 1 2 1
3 2 2 1 1 1 0 1 2 4 3 2 4 5 7 7 5 4 5 4 4 4 3 3 3 3 3 2 2 1 1 1 1 1 1 2 2 2 1 1 1 1 1 1 1 1 1 1 1
2 1 2 3 3 2 2 3 2 5 3 3 5 5 6 7 6 4 4 5 4 4 4 3 3 3 3 2 2 1 1 1 1 1 1 1 1 2 2 1 1 1 1 1 1 1 1 1 1
1 1 3 4 4 3 1 4 6 6 3 4 5 5 5 5 5 6 6 6 5 5 4 4 4 3 3 3 2 2 2 2 1 1 1 1 1 2 2 2 1 1 1 1 1 1 1 1 1
1 0 3 4 3 3 4 8 5 4 5 5 5 5 4 4 5 5 5 5 4 5 4 4 3 3 3 3 2 2 1 2 1 1 1 1 1 2 2 2 2 2 1 1 1 1 1 1 1
0 3 5 5 3 3 4 8 5 3 5 7 6 6 5 4 3 4 4 5 5 5 4 3 3 4 3 3 2 2 1 1 1 1 1 1 1 2 2 2 2 2 2 1 1 1 1 1 0
5 4 4 5 3 2 5 9 7 4 5 7 7 6 6 5 6 4 4 4 4 4 4 3 3 3 3 2 2 1 1 0 0 1 1 1 1 2 2 1 2 2 2 1 1 1 0 1 0
3 4 6 6 3 3 8 10 9 7 5 6 6 6 6 6 5 4 4 4 4 3 3 3 3 2 3 2 2 2 2 1 1 1 1 1 1 2 2 2 2 2 2 3 2 2 1 0 1
4 5 6 5 2 3 6 10 9 8 8 8 8 8 7 5 3 3 3 3 4 4 4 3 3 3 3 3 2 2 2 1 1 1 0 1 1 2 2 2 2 2 2 2 2 2 1 0 1
6 6 6 5 3 3 3 8 6 6 5 5 6 6 6 7 6 5 4 4 4 4 5 4 4 3 3 3 2 1 1 0 0 1 1 1 2 2 2 3 2 3 3 3 3 3 3 2 1
7 5 5 3 1 4 2 6 7 5 4 5 5 5 6 6 5 5 4 4 5 5 5 4 4 3 3 3 3 4 3 2 2 2 2 1 1 1 2 2 3 3 3 3 3 3 2 3 2
5 2 3 3 3 3 3 5 9 3 6 8 7 6 6 6 5 5 5 5 4 4 4 4 3 3 3 3 4 4 3 2 1 1 1 1 1 1 1 2 2 2 2 3 3 3 3 3 3
2 2 2 2 2 5 7 6 9 6 8 7 7 6 6 5 4 4 3 3 2 2 2 3 3 2 3 3 4 4 4 3 3 2 2 1 1 1 1 1 2 2 2 2 3 3 3 3 3
2 3 2 3 2 8 3 6 10 6 6 7 7 7 5 4 4 4 3 2 2 2 2 3 3 2 3 3 3 4 5 5 5 4 3 3 1 1 2 1 1 1 2 2 2 2 3 4 4
4 6 6 5 5 5 2 8 8 4 3 2 3 4 3 4 4 4 4 4 3 3 2 3 3 2 3 3 3 3 4 3 3 4 3 3 2 2 3 2 2 2 2 2 2 2 2 2 3
4 4 4 2 1 3 6 6 7 2 1 0 1 2 3 4 4 4 4 3 3 2 2 3 3 2 3 3 3 3 3 3 3 3 3 2 2 2 2 2 2 2 2 2 2 2 2 2 3
3 5 3 3 3 5 6 6 6 5 5 3 3 3 4 4 4 3 3 3 2 2 1 1 2 3 3 2 2 2 2 3 3 3 3 2 2 2 2 2 2 2 2 2 2 2 2 2 2
3 3 4 3 4 4 5 8 5 6 6 6 6 5 5 4 4 4 3 2 1 1 0 1 1 1 1 2 2 2 2 2 3 3 3 2 2 2 2 2 2 2 2 2 2 2 2 2 2
5 6 6 5 5 4 4 9 3 3 4 5 5 4 3 3 3 3 3 2 1 1 0 0 0 1 1 2 2 2 2 2 2 2 2 2 2 1 1 1 2 2 2 2 3 2 2 3 3
Wind_Direction
336 336 50 56 57 54 240 261 247 312 34 358 77 96 102 99 117 142 170 130 124 129 130 123 111 113 115 112 108 109 109 106 102 100 99 98 97 94 92 90 88 87 88 90 88 86 87 90 90
333 354 53 62 90 121 259 257 242 250 196 152 70 79 79 74 81 108 122 134 125 123 122 119 106 108 114 114 109 106 108 109 107 104 104 103 102 100 96 94 91 89 89 90 90 90 87 86 91
331 50 79 79 125 180 210 234 216 243 297 87 67 51 84 103 112 135 157 136 116 112 113 117 111 110 108 111 111 108 106 108 108 106 106 106 104 103 102 101 97 92 90 91 91 90 89 86 86
42 46 58 83 193 217 203 229 209 173 14 39 95 66 54 35 144 146 133 122 114 109 107 112 112 110 103 103 106 106 106 107 109 107 107 107 104 104 104 103 103 100 96 95 95 91 89 87 83
58 76 74 96 232 244 235 232 208 154 111 37 93 98 52 354 97 118 124 121 120 114 104 110 106 108 103 101 101 102 103 104 106 108 106 106 105 105 103 101 102 105 104 100 99 95 92 90 86
57 72 107 203 229 256 268 244 151 118 117 59 93 109 141 15 109 123 120 119 121 120 106 102 101 97 99 99 99 101 97 96 101 103 108 106 103 101 104 103 101 105 109 107 100 98 91 85 81
106 108 169 191 209 251 257 223 147 149 120 182 130 116 150 240 141 122 110 108 110 113 107 96 101 97 93 94 95 93 92 90 94 98 103 105 103 102 102 100 100 104 106 106 104 100 96 87 81
123 108 166 208 198 236 271 146 149 141 159 132 109 138 183 202 149 111 101 100 102 102 105 104 97 94 94 95 93 90 88 86 87 89 90 95 98 100 100 97 100 107 107 103 100 98 94 86 80
94 91 207 213 193 225 287 76 353 54 101 46 58 161 177 143 119 104 99 94 98 99 103 111 109 103 100 103 91 87 88 82 81 80 85 84 83 93 99 98 103 107 105 103 98 94 83 68 66
99 163 221 222 195 192 275 166 210 77 65 43 31 51 112 127 131 131 137 141 141 146 141 126 122 116 110 104 91 82 77 72 66 65 67 73 77 78 87 93 99 106 99 94 94 88 72 53 38
148 190 216 239 206 168 176 292 279 145 217 208 182 162 145 141 145 152 159 160 165 166 155 148 145 135 127 116 110 92 79 72 66 73 77 80 73 71 68 79 81 86 85 78 78 68 53 50 47
169 224 213 232 265 178 218 230 277 212 227 211 175 160 155 164 174 171 168 170 161 156 167 164 156 142 136 128 129 126 120 105 87 81 93 105 98 82 84 83 81 84 81 81 77 80 68 58 54
208 239 244 239 283 252 186 224 219 250 244 180 147 152 166 176 185 184 171 168 162 166 175 171 157 150 147 141 148 139 150 151 138 109 109 123 126 120 104 94 84 83 88 94 97 99 89 66 51
205 221 277 273 262 260 228 264 236 247 204 158 160 177 188 189 185 180 179 180 180 179 181 172 159 161 151 150 155 159 156 145 129 129 136 131 138 139 135 118 110 103 108 113 114 107 98 74 64
128 319 301 258 231 225 168 279 232 224 170 173 193 198 202 204 189 189 189 188 186 183 180 174 164 156 154 157 162 155 161 153 152 176 163 149 143 150 147 142 143 150 116 98 87 77 78 67 47
67 151 265 262 204 200 158 252 248 207 178 201 210 210 212 215 202 199 190 185 185 175 174 178 163 157 163 164 164 163 160 159 171 185 191 175 166 153 147 154 163 150 121 108 117 120 89 61 49
327 228 240 272 221 185 193 247 257 213 197 212 215 214 214 216 217 203 183 173 174 170 166 170 165 167 168 163 160 152 150 158 181 175 189 197 186 169 156 165 172 148 135 127 149 113 121 128 48
221 227 240 244 254 215 233 252 265 246 215 218 217 217 214 208 215 198 181 171 165 161 156 157 162 168 164 153 138 127 117 149 173 184 197 198 195 172 157 162 169 157 147 145 146 136 112 166 185
213 216 244 252 251 233 243 254 258 252 234 230 226 218 213 214 214 189 177 168 157 155 158 165 162 174 162 162 166 172 194 199 209 218 213 197 196 179 166 167 174 170 168 175 167 149 138 105 87
239 248 257 274 270 243 260 267 259 244 229 223 220 216 211 206 199 191 178 171 173 174 176 177 177 181 179 183 183 183 184 197 207 210 220 197 183 186 182 169 179 181 172 173 172 148 143 157 126
244 231 240 254 309 308 304 291 258 253 237 231 224 213 199 190 192 194 186 189 185 183 187 189 190 186 186 176 155 130 93 60 237 231 231 230 203 198 189 181 177 184 176 187 192 175 165 175 225
247 231 232 244 253 270 190 277 270 244 245 232 225 214 207 202 193 190 187 192 197 196 190 191 192 188 187 172 165 166 174 199 220 218 222 233 213 197 195 181 178 182 180 184 201 188 179 165 188
231 229 221 235 215 275 230 235 274 242 240 237 226 217 210 201 190 191 194 197 199 189 184 190 189 189 185 178 178 179 189 203 197 195 201 222 221 194 191 183 174 178 186 186 194 192 183 178 182
169 56 28 40 96 257 224 207 267 224 220 226 221 215 206 196 187 185 187 177 177 174 176 175 176 192 192 187 185 186 191 188 183 197 202 214 215 203 215 194 179 182 187 194 200 198 192 193 187
105 101 9 324 281 248 218 213 249 239 226 214 212 210 201 189 179 174 174 173 179 178 178 175 174 193 197 192 193 195 194 188 194 200 202 197 196 208 224 215 197 200 205 195 198 192 194 195 192
199 169 182 214 232 269 254 232 251 251 254 227 203 193 182 187 185 183 189 189 190 191 183 178 181 198 202 196 198 197 192 191 198 202 199 198 199 208 210 203 205 213 216 203 188 193 207 195 193
174 207 193 167 256 263 256 271 291 245 264 251 173 171 193 195 191 191 192 189 187 191 203 192 187 207 215 203 190 189 190 190 189 193 190 189 195 198 193 192 198 204 213 211 190 194 211 205 204
176 158 131 167 208 253 269 253 244 233 232 230 222 216 217 203 193 191 189 190 188 190 216 195 192 215 220 194 186 177 187 187 179 172 177 179 188 187 179 187 199 202 202 207 202 204 210 206 216
173 183 181 185 198 203 260 264 231 214 211 211 216 212 204 200 193 190 190 186 177 150 148 166 190 203 179 169 164 154 158 161 160 165 171 173 176 178 176 193 202 207 207 213 210 217 219 220 231
205 201 178 191 228 211 233 267 276 235 216 205 212 210 201 196 193 184 177 168 167 164 191 184 181 157 156 145 138 146 144 140 149 162 173 167 178 188 191 196 210 214 209 209 214 221 230 222 230